Time,TemperatureF,DewpointF,PressureIn,WindDirection,WindDirectionDegrees,WindSpeedMPH,WindSpeedGustMPH,Humidity,HourlyPrecipIn,Conditions,Clouds,dailyrainin,SoftwareType,DateUTC
2013-09-03 00:01:00,68.5,58.0,29.89,SE,135,0.0,0.0,69,0.00,CLR,FEW,0.00,WeatherDisplay:10.37,2013-09-03 07:01:00,
2013-09-03 00:11:00,68.4,58.2,29.90,SE,135,0.0,0.0,70,0.00,CLR,FEW,0.00,WeatherDisplay:10.37,2013-09-03 07:11:00,
2013-09-03 00:16:00,68.4,57.8,29.90,SE,135,0.0,0.0,69,0.00,CLR,FEW,0.00,WeatherDisplay:10.37,2013-09-03 07:16:00,
2013-09-03 00:21:00,68.4,58.2,29.90,SE,135,0.0,0.0,70,0.00,CLR,FEW,0.00,WeatherDisplay:10.37,2013-09-03 07:21:00,
2013-09-03 00:26:00,68.2,58.4,29.90,SE,135,0.0,0.0,71,0.00,CLR,FEW,0.00,WeatherDisplay:10.37,2013-09-03 07:26:00,
2013-09-03 00:31:00,68.2,58.4,29.90,SE,135,0.0,0.0,71,0.00,CLR,FEW,0.00,WeatherDisplay:10.37,2013-09-03 07:31:00,
2013-09-03 00:36:00,68.4,58.2,29.90,SE,135,0.0,0.0,70,0.00,CLR,FEW,0.00,WeatherDisplay:10.37,2013-09-03 07:36:00,
2013-09-03 00:41:00,68.2,58.0,29.90,SE,135,0.0,0.0,70,0.00,CLR,FEW,0.00,WeatherDisplay:10.37,2013-09-03 07:41:00,
2013-09-03 00:46:00,68.2,58.0,29.89,SE,135,0.0,0.0,70,0.00,CLR,FEW,0.00,WeatherDisplay:10.37,2013-09-03 07:46:00,
2013-09-03 00:51:00,68.2,58.0,29.90,SE,135,0.0,0.0,70,0.00,CLR,FEW,0.00,WeatherDisplay:10.37,2013-09-03 07:51:00,
2013-09-03 00:56:00,68.2,58.0,29.90,SE,135,0.0,0.0,70,0.00,CLR,FEW,0.00,WeatherDisplay:10.37,2013-09-03 07:56:00,
2013-09-03 01:07:00,67.8,57.7,29.90,SE,135,0.0,0.0,70,0.00,CLR,FEW,0.00,WeatherDisplay:10.37,2013-09-03 08:07:00,
2013-09-03 01:16:00,67.8,57.7,29.90,SE,135,0.0,0.0,70,0.00,CLR,FEW,0.00,WeatherDisplay:10.37,2013-09-03 08:16:00,
2013-09-03 01:21:00,67.8,57.7,29.90,SE,135,0.0,0.0,70,0.00,CLR,FEW,0.00,WeatherDisplay:10.37,2013-09-03 08:21:00,
2013-09-03 01:27:00,67.8,57.7,29.89,SE,135,0.0,0.0,70,0.00,CLR,FEW,0.00,WeatherDisplay:10.37,2013-09-03 08:27:00,
2013-09-03 01:32:00,67.6,57.9,29.89,SE,135,0.0,0.0,71,0.00,CLR,FEW,0.00,WeatherDisplay:10.37,2013-09-03 08:32:00,
2013-09-03 01:37:00,67.6,58.3,29.89,SE,135,0.0,0.0,72,0.00,CLR,FEW,0.00,WeatherDisplay:10.37,2013-09-03 08:37:00,
2013-09-03 01:42:00,67.6,58.3,29.90,SE,135,0.0,0.0,72,0.00,CLR,FEW,0.00,WeatherDisplay:10.37,2013-09-03 08:42:00,
2013-09-03 01:47:00,67.3,57.9,29.91,SE,135,4.6,4.6,72,0.00,CLR,FEW,0.00,WeatherDisplay:10.37,2013-09-03 08:47:00,
2013-09-03 01:52:00,67.3,58.7,29.91,SE,135,0.0,0.0,74,0.00,CLR,FEW,0.00,WeatherDisplay:10.37,2013-09-03 08:52:00,
2013-09-03 01:57:00,67.1,58.5,29.91,SE,135,0.0,0.0,74,0.00,CLR,FEW,0.00,WeatherDisplay:10.37,2013-09-03 08:57:00,
2013-09-03 02:02:00,67.3,58.7,29.92,SE,135,0.0,0.0,74,0.00,CLR,FEW,0.00,WeatherDisplay:10.37,2013-09-03 09:02:00,
2013-09-03 02:07:00,67.3,58.3,29.92,SE,135,0.0,0.0,73,0.00,CLR,FEW,0.00,WeatherDisplay:10.37,2013-09-03 09:07:00,
2013-09-03 02:12:00,67.3,58.3,29.91,SE,135,0.0,0.0,73,0.00,CLR,FEW,0.00,WeatherDisplay:10.37,2013-09-03 09:12:00,
2013-09-03 02:17:00,67.3,58.3,29.91,SE,135,0.0,0.0,73,0.00,CLR,FEW,0.00,WeatherDisplay:10.37,2013-09-03 09:17:00,
2013-09-03 02:22:00,67.3,57.9,29.91,SSE,158,0.0,0.0,72,0.00,CLR,FEW,0.00,WeatherDisplay:10.37,2013-09-03 09:22:00,
2013-09-03 02:27:00,67.6,58.3,29.91,SSE,158,0.0,0.0,72,0.00,CLR,FEW,0.00,WeatherDisplay:10.37,2013-09-03 09:27:00,
2013-09-03 02:32:00,67.3,58.7,29.91,SE,135,0.0,0.0,74,0.00,CLR,FEW,0.00,WeatherDisplay:10.37,2013-09-03 09:32:00,
2013-09-03 02:37:00,67.1,58.5,29.91,SE,135,0.0,0.0,74,0.00,CLR,FEW,0.00,WeatherDisplay:10.37,2013-09-03 09:37:00,
2013-09-03 02:42:00,67.1,58.5,29.91,SE,135,0.0,0.0,74,0.00,CLR,FEW,0.00,WeatherDisplay:10.37,2013-09-03 09:42:00,
2013-09-03 02:47:00,67.3,58.3,29.90,SE,135,0.0,0.0,73,0.00,CLR,FEW,0.00,WeatherDisplay:10.37,2013-09-03 09:47:00,
2013-09-03 02:52:00,67.3,58.3,29.90,SSE,158,0.0,0.0,73,0.00,CLR,FEW,0.00,WeatherDisplay:10.37,2013-09-03 09:52:00,
2013-09-03 02:57:00,67.3,57.9,29.91,SSE,158,0.0,0.0,72,0.00,CLR,FEW,0.00,WeatherDisplay:10.37,2013-09-03 09:57:00,
2013-09-03 03:02:00,67.5,58.1,29.91,SSE,158,0.0,0.0,72,0.00,CLR,FEW,0.00,WeatherDisplay:10.37,2013-09-03 10:02:00,
2013-09-03 03:07:00,67.3,57.9,29.92,SSE,158,0.0,0.0,72,0.00,CLR,FEW,0.00,WeatherDisplay:10.37,2013-09-03 10:07:00,
2013-09-03 03:12:00,67.3,57.9,29.92,SSE,158,0.0,0.0,72,0.00,CLR,FEW,0.00,WeatherDisplay:10.37,2013-09-03 10:12:00,
2013-09-03 03:17:00,67.3,57.9,29.91,SSE,158,0.0,0.0,72,0.00,CLR,FEW,0.00,WeatherDisplay:10.37,2013-09-03 10:17:00,
2013-09-03 03:22:00,67.3,57.6,29.91,SSE,158,0.0,0.0,71,0.00,CLR,FEW,0.00,WeatherDisplay:10.37,2013-09-03 10:22:00,
2013-09-03 03:28:00,67.3,57.6,29.92,SSE,158,0.0,0.0,71,0.00,CLR,FEW,0.00,WeatherDisplay:10.37,2013-09-03 10:28:00,
2013-09-03 03:37:00,67.6,57.5,29.92,SW,225,0.0,0.0,70,0.00,CLR,FEW,0.00,WeatherDisplay:10.37,2013-09-03 10:37:00,
2013-09-03 03:42:00,67.6,57.5,29.92,SW,225,0.0,0.0,70,0.00,CLR,FEW,0.00,WeatherDisplay:10.37,2013-09-03 10:42:00,
2013-09-03 03:48:00,67.6,57.9,29.92,SW,225,0.0,0.0,71,0.00,CLR,FEW,0.00,WeatherDisplay:10.37,2013-09-03 10:48:00,
2013-09-03 03:53:00,67.6,57.9,29.91,SW,225,0.0,0.0,71,0.00,CLR,FEW,0.00,WeatherDisplay:10.37,2013-09-03 10:53:00,
2013-09-03 03:58:00,67.5,57.7,29.91,SW,225,0.0,0.0,71,0.00,CLR,FEW,0.00,WeatherDisplay:10.37,2013-09-03 10:58:00,
2013-09-03 04:03:00,67.3,57.6,29.91,SW,225,0.0,0.0,71,0.00,CLR,FEW,0.00,WeatherDisplay:10.37,2013-09-03 11:03:00,
2013-09-03 04:08:00,66.9,57.6,29.91,SSW,202,5.8,5.8,72,0.00,CLR,FEW,0.00,WeatherDisplay:10.37,2013-09-03 11:08:00,
2013-09-03 04:13:00,66.7,57.4,29.90,South,180,0.0,0.0,72,0.00,CLR,FEW,0.00,WeatherDisplay:10.37,2013-09-03 11:13:00,
2013-09-03 04:18:00,66.6,57.6,29.91,South,180,0.0,0.0,73,0.00,CLR,FEW,0.00,WeatherDisplay:10.37,2013-09-03 11:18:00,
2013-09-03 04:23:00,66.6,57.6,29.91,South,180,0.0,0.0,73,0.00,CLR,FEW,0.00,WeatherDisplay:10.37,2013-09-03 11:23:00,
2013-09-03 04:28:00,66.4,57.5,29.90,South,180,0.0,0.0,73,0.00,CLR,FEW,0.00,WeatherDisplay:10.37,2013-09-03 11:28:00,
2013-09-03 04:33:00,66.2,57.3,29.90,South,180,0.0,0.0,73,0.00,CLR,FEW,0.00,WeatherDisplay:10.37,2013-09-03 11:33:00,
2013-09-03 04:38:00,66.0,57.1,29.91,SW,225,0.0,0.0,73,0.00,CLR,FEW,0.00,WeatherDisplay:10.37,2013-09-03 11:38:00,
2013-09-03 04:44:00,66.0,57.1,29.90,SW,225,0.0,0.0,73,0.00,CLR,FEW,0.00,WeatherDisplay:10.37,2013-09-03 11:44:00,
2013-09-03 04:53:00,65.8,56.9,29.90,SW,225,0.0,0.0,73,0.00,CLR,FEW,0.00,WeatherDisplay:10.37,2013-09-03 11:53:00,
2013-09-03 04:58:00,65.8,57.3,29.90,SW,225,0.0,0.0,74,0.00,CLR,FEW,0.00,WeatherDisplay:10.37,2013-09-03 11:58:00,
2013-09-03 05:03:00,65.8,57.3,29.91,SW,225,0.0,0.0,74,0.00,CLR,FEW,0.00,WeatherDisplay:10.37,2013-09-03 12:03:00,
2013-09-03 05:08:00,65.7,57.1,29.91,SW,225,0.0,0.0,74,0.00,CLR,FEW,0.00,WeatherDisplay:10.37,2013-09-03 12:08:00,
2013-09-03 05:13:00,65.5,57.0,29.91,SW,225,0.0,0.0,74,0.00,CLR,FEW,0.00,WeatherDisplay:10.37,2013-09-03 12:13:00,
2013-09-03 05:18:00,65.5,57.0,29.92,SW,225,0.0,0.0,74,0.00,CLR,FEW,0.00,WeatherDisplay:10.37,2013-09-03 12:18:00,
2013-09-03 05:19:00,65.5,57.0,29.92,SW,225,0.0,0.0,74,0.00,CLR,FEW,0.00,WeatherDisplay:10.37,2013-09-03 12:19:00,
2013-09-03 05:24:00,65.5,57.3,29.92,SW,225,0.0,0.0,75,0.00,CLR,FEW,0.00,WeatherDisplay:10.37,2013-09-03 12:24:00,
2013-09-03 05:29:00,65.5,57.0,29.91,SW,225,0.0,0.0,74,0.00,CLR,FEW,0.00,WeatherDisplay:10.37,2013-09-03 12:29:00,
2013-09-03 05:34:00,65.5,57.3,29.92,SW,225,0.0,0.0,75,0.00,CLR,FEW,0.00,WeatherDisplay:10.37,2013-09-03 12:34:00,
2013-09-03 05:39:00,65.3,57.2,29.92,SW,225,0.0,0.0,75,0.00,CLR,FEW,0.00,WeatherDisplay:10.37,2013-09-03 12:39:00,
2013-09-03 05:49:00,65.1,57.0,29.92,SW,225,0.0,0.0,75,0.00,CLR,FEW,0.00,WeatherDisplay:10.37,2013-09-03 12:49:00,
2013-09-03 05:54:00,65.3,57.2,29.92,SW,225,0.0,0.0,75,0.00,CLR,FEW,0.00,WeatherDisplay:10.37,2013-09-03 12:54:00,
2013-09-03 05:59:00,65.1,57.0,29.92,SW,225,0.0,0.0,75,0.00,CLR,FEW,0.00,WeatherDisplay:10.37,2013-09-03 12:59:00,
2013-09-03 06:04:00,65.1,57.0,29.92,SW,225,0.0,0.0,75,0.00,CLR,FEW,0.00,WeatherDisplay:10.37,2013-09-03 13:04:00,
2013-09-03 06:09:00,64.9,56.8,29.92,SW,225,0.0,0.0,75,0.00,CLR,FEW,0.00,WeatherDisplay:10.37,2013-09-03 13:09:00,
2013-09-03 06:14:00,64.9,56.8,29.92,SW,225,0.0,0.0,75,0.00,CLR,FEW,0.00,WeatherDisplay:10.37,2013-09-03 13:14:00,
2013-09-03 06:19:00,64.9,56.8,29.92,SW,225,0.0,0.0,75,0.00,CLR,FEW,0.00,WeatherDisplay:10.37,2013-09-03 13:19:00,
2013-09-03 06:24:00,64.9,56.8,29.92,SW,225,0.0,0.0,75,0.00,CLR,FEW,0.00,WeatherDisplay:10.37,2013-09-03 13:24:00,
2013-09-03 06:29:00,64.9,57.2,29.93,SW,225,0.0,0.0,76,0.00,CLR,FEW,0.00,WeatherDisplay:10.37,2013-09-03 13:29:00,
2013-09-03 06:34:00,64.9,57.6,29.92,SW,225,0.0,0.0,77,0.00,CLR,FEW,0.00,WeatherDisplay:10.37,2013-09-03 13:34:00,
2013-09-03 06:39:00,64.9,57.2,29.93,SW,225,0.0,0.0,76,0.00,CLR,FEW,0.00,WeatherDisplay:10.37,2013-09-03 13:39:00,
2013-09-03 06:49:00,65.1,57.7,29.93,SW,225,0.0,0.0,77,0.00,CLR,FEW,0.00,WeatherDisplay:10.37,2013-09-03 13:49:00,
2013-09-03 06:55:00,65.1,57.7,29.93,SW,225,0.0,0.0,77,0.00,CLR,FEW,0.00,WeatherDisplay:10.37,2013-09-03 13:55:00,
2013-09-03 07:05:00,65.5,58.1,29.93,SW,225,0.0,0.0,77,0.00,CLR,FEW,0.00,WeatherDisplay:10.37,2013-09-03 14:05:00,
2013-09-03 07:10:00,65.8,58.4,29.94,SW,225,0.0,0.0,77,0.00,CLR,FEW,0.00,WeatherDisplay:10.37,2013-09-03 14:10:00,
2013-09-03 07:15:00,66.0,58.6,29.94,SW,225,0.0,0.0,77,0.00,CLR,FEW,0.00,WeatherDisplay:10.37,2013-09-03 14:15:00,
2013-09-03 07:20:00,66.0,58.6,29.93,SW,225,0.0,0.0,77,0.00,CLR,FEW,0.00,WeatherDisplay:10.37,2013-09-03 14:20:00,
2013-09-03 07:25:00,66.2,58.8,29.94,SW,225,0.0,0.0,77,0.00,CLR,FEW,0.00,WeatherDisplay:10.37,2013-09-03 14:25:00,
2013-09-03 07:30:00,66.4,58.9,29.94,SW,225,0.0,0.0,77,0.00,CLR,FEW,0.00,WeatherDisplay:10.37,2013-09-03 14:30:00,
2013-09-03 07:35:00,66.4,58.9,29.94,SW,225,0.0,0.0,77,0.00,CLR,FEW,0.00,WeatherDisplay:10.37,2013-09-03 14:35:00,
2013-09-03 07:40:00,66.7,59.3,29.93,SW,225,0.0,0.0,77,0.00,CLR,FEW,0.00,WeatherDisplay:10.37,2013-09-03 14:40:00,
2013-09-03 07:45:00,66.7,58.9,29.94,SW,225,0.0,0.0,76,0.00,CLR,FEW,0.00,WeatherDisplay:10.37,2013-09-03 14:45:00,
2013-09-03 07:50:00,66.9,59.1,29.94,SW,225,0.0,0.0,76,0.00,CLR,FEW,0.00,WeatherDisplay:10.37,2013-09-03 14:50:00,
2013-09-03 07:55:00,67.3,59.1,29.94,SW,225,0.0,0.0,75,0.00,CLR,FEW,0.00,WeatherDisplay:10.37,2013-09-03 14:55:00,
2013-09-03 08:00:00,67.5,59.3,29.94,SW,225,0.0,0.0,75,0.00,CLR,FEW,0.00,WeatherDisplay:10.37,2013-09-03 15:00:00,
2013-09-03 08:05:00,67.6,59.4,29.94,SW,225,0.0,0.0,75,0.00,CLR,FEW,0.00,WeatherDisplay:10.37,2013-09-03 15:05:00,
2013-09-03 08:10:00,67.8,59.6,29.95,SW,225,0.0,0.0,75,0.00,CLR,FEW,0.00,WeatherDisplay:10.37,2013-09-03 15:10:00,
2013-09-03 08:15:00,67.8,59.6,29.95,SW,225,0.0,0.0,75,0.00,CLR,FEW,0.00,WeatherDisplay:10.37,2013-09-03 15:15:00,
2013-09-03 08:20:00,67.8,59.2,29.95,SW,225,0.0,0.0,74,0.00,CLR,FEW,0.00,WeatherDisplay:10.37,2013-09-03 15:20:00,
2013-09-03 08:25:00,67.8,59.2,29.95,SW,225,0.0,0.0,74,0.00,CLR,FEW,0.00,WeatherDisplay:10.37,2013-09-03 15:25:00,
2013-09-03 08:35:00,68.2,59.6,29.95,SW,225,0.0,0.0,74,0.00,CLR,FEW,0.00,WeatherDisplay:10.37,2013-09-03 15:35:00,
2013-09-03 08:40:00,68.2,59.2,29.95,SW,225,0.0,0.0,73,0.00,CLR,FEW,0.00,WeatherDisplay:10.37,2013-09-03 15:40:00,
2013-09-03 08:45:00,68.5,59.5,29.95,SW,225,0.0,0.0,73,0.00,CLR,FEW,0.00,WeatherDisplay:10.37,2013-09-03 15:45:00,
2013-09-03 08:51:00,68.7,59.3,29.95,SW,225,0.0,0.0,72,0.00,CLR,FEW,0.00,WeatherDisplay:10.37,2013-09-03 15:51:00,
2013-09-03 08:56:00,68.7,58.9,29.95,SW,225,0.0,0.0,71,0.00,CLR,FEW,0.00,WeatherDisplay:10.37,2013-09-03 15:56:00,
2013-09-03 09:01:00,68.9,58.7,29.96,SW,225,0.0,0.0,70,0.00,CLR,FEW,0.00,WeatherDisplay:10.37,2013-09-03 16:01:00,
2013-09-03 09:06:00,69.1,58.9,29.95,SW,225,0.0,0.0,70,0.00,CLR,FEW,0.00,WeatherDisplay:10.37,2013-09-03 16:06:00,
2013-09-03 09:11:00,69.3,59.1,29.95,SW,225,0.0,0.0,70,0.00,CLR,FEW,0.00,WeatherDisplay:10.37,2013-09-03 16:11:00,
2013-09-03 09:16:00,69.6,59.0,29.95,SW,225,0.0,0.0,69,0.00,CLR,FEW,0.00,WeatherDisplay:10.37,2013-09-03 16:16:00,
2013-09-03 09:21:00,69.6,59.0,29.95,SW,225,0.0,0.0,69,0.00,CLR,FEW,0.00,WeatherDisplay:10.37,2013-09-03 16:21:00,
2013-09-03 09:26:00,70.0,59.7,29.95,SW,225,0.0,0.0,70,0.00,CLR,FEW,0.00,WeatherDisplay:10.37,2013-09-03 16:26:00,
2013-09-03 09:33:00,70.0,59.3,29.96,SW,225,0.0,0.0,69,0.00,CLR,FEW,0.00,WeatherDisplay:10.37,2013-09-03 16:33:00,
2013-09-03 09:38:00,70.3,59.3,29.96,SW,225,0.0,0.0,68,0.00,CLR,FEW,0.00,WeatherDisplay:10.37,2013-09-03 16:38:00,
2013-09-03 09:43:00,70.3,58.9,29.96,SW,225,0.0,0.0,67,0.00,CLR,FEW,0.00,WeatherDisplay:10.37,2013-09-03 16:43:00,
2013-09-03 09:51:00,70.9,59.0,29.95,SW,225,0.0,0.0,66,0.00,CLR,FEW,0.00,WeatherDisplay:10.37,2013-09-03 16:51:00,
2013-09-03 09:56:00,71.1,59.1,29.95,SW,225,0.0,0.0,66,0.00,CLR,FEW,0.00,WeatherDisplay:10.37,2013-09-03 16:56:00,
2013-09-03 10:01:00,71.2,58.9,29.95,SW,225,0.0,0.0,65,0.00,CLR,FEW,0.00,WeatherDisplay:10.37,2013-09-03 17:01:00,
2013-09-03 10:06:00,71.4,59.0,29.95,SW,225,0.0,0.0,65,0.00,CLR,FEW,0.00,WeatherDisplay:10.37,2013-09-03 17:06:00,
2013-09-03 10:11:00,71.8,59.4,29.95,SW,225,0.0,0.0,65,0.00,CLR,FEW,0.00,WeatherDisplay:10.37,2013-09-03 17:11:00,
2013-09-03 10:16:00,72.0,59.1,29.96,SSE,158,0.0,0.0,64,0.00,CLR,FEW,0.00,WeatherDisplay:10.37,2013-09-03 17:16:00,
2013-09-03 10:21:00,72.3,59.0,29.96,SSE,158,0.0,0.0,63,0.00,CLR,FEW,0.00,WeatherDisplay:10.37,2013-09-03 17:21:00,
2013-09-03 10:26:00,72.7,59.4,29.95,SSE,158,0.0,0.0,63,0.00,CLR,FEW,0.00,WeatherDisplay:10.37,2013-09-03 17:26:00,
2013-09-03 10:31:00,73.2,59.4,29.96,SSE,158,0.0,0.0,62,0.00,CLR,FEW,0.00,WeatherDisplay:10.37,2013-09-03 17:31:00,
2013-09-03 10:37:00,73.4,59.6,29.95,SSE,158,0.0,0.0,62,0.00,CLR,FEW,0.00,WeatherDisplay:10.37,2013-09-03 17:37:00,
2013-09-03 10:42:00,73.9,59.6,29.96,ENE,68,0.0,0.0,61,0.00,CLR,FEW,0.00,WeatherDisplay:10.37,2013-09-03 17:42:00,
2013-09-03 10:51:00,74.8,60.5,29.95,ENE,68,0.0,0.0,61,0.00,CLR,FEW,0.00,WeatherDisplay:10.37,2013-09-03 17:51:00,
2013-09-03 10:56:00,75.2,60.8,29.95,ENE,68,0.0,0.0,61,0.00,CLR,FEW,0.00,WeatherDisplay:10.37,2013-09-03 17:56:00,
2013-09-03 11:02:00,75.7,60.4,29.95,NE,45,0.0,0.0,59,0.00,CLR,FEW,0.00,WeatherDisplay:10.37,2013-09-03 18:02:00,
2013-09-03 11:07:00,76.1,60.2,29.95,NNE,22,0.0,0.0,58,0.00,CLR,FEW,0.00,WeatherDisplay:10.37,2013-09-03 18:07:00,
2013-09-03 11:12:00,76.3,60.4,29.95,NNE,22,0.0,0.0,58,0.00,CLR,FEW,0.00,WeatherDisplay:10.37,2013-09-03 18:12:00,
2013-09-03 11:17:00,76.3,60.4,29.96,NNE,22,0.0,0.0,58,0.00,CLR,FEW,0.00,WeatherDisplay:10.37,2013-09-03 18:17:00,
2013-09-03 11:22:00,76.5,60.6,29.95,NNE,22,0.0,0.0,58,0.00,CLR,FEW,0.00,WeatherDisplay:10.37,2013-09-03 18:22:00,
2013-09-03 11:27:00,76.6,60.8,29.95,NNE,22,0.0,0.0,58,0.00,CLR,FEW,0.00,WeatherDisplay:10.37,2013-09-03 18:27:00,
2013-09-03 11:32:00,76.8,60.4,29.96,NNE,22,0.0,0.0,57,0.00,CLR,FEW,0.00,WeatherDisplay:10.37,2013-09-03 18:32:00,
2013-09-03 11:37:00,77.0,60.6,29.96,ENE,68,0.0,0.0,57,0.00,CLR,FEW,0.00,WeatherDisplay:10.37,2013-09-03 18:37:00,
2013-09-03 11:42:00,77.4,60.9,29.95,SE,135,0.0,0.0,57,0.00,CLR,FEW,0.00,WeatherDisplay:10.37,2013-09-03 18:42:00,
2013-09-03 11:47:00,77.9,60.9,29.95,SE,135,0.0,0.0,56,0.00,CLR,FEW,0.00,WeatherDisplay:10.37,2013-09-03 18:47:00,
2013-09-03 11:52:00,78.4,61.4,29.95,SSW,202,0.0,0.0,56,0.00,CLR,FEW,0.00,WeatherDisplay:10.37,2013-09-03 18:52:00,
2013-09-03 11:57:00,78.6,60.6,29.95,SSW,202,0.0,0.0,54,0.00,CLR,FEW,0.00,WeatherDisplay:10.37,2013-09-03 18:57:00,
2013-09-03 12:02:00,79.0,60.9,29.95,South,180,0.0,0.0,54,0.00,CLR,FEW,0.00,WeatherDisplay:10.37,2013-09-03 19:02:00,
2013-09-03 12:07:00,79.0,60.9,29.95,South,180,0.0,0.0,54,0.00,CLR,FEW,0.00,WeatherDisplay:10.37,2013-09-03 19:07:00,
2013-09-03 12:12:00,79.0,60.9,29.95,South,180,0.0,0.0,54,0.00,CLR,FEW,0.00,WeatherDisplay:10.37,2013-09-03 19:12:00,
2013-09-03 12:17:00,79.0,60.9,29.95,South,180,0.0,0.0,54,0.00,CLR,FEW,0.00,WeatherDisplay:10.37,2013-09-03 19:17:00,
2013-09-03 12:22:00,79.0,60.9,29.95,South,180,0.0,0.0,54,0.00,CLR,FEW,0.00,WeatherDisplay:10.37,2013-09-03 19:22:00,
2013-09-03 12:27:00,79.2,61.1,29.95,South,180,0.0,0.0,54,0.00,CLR,FEW,0.00,WeatherDisplay:10.37,2013-09-03 19:27:00,
2013-09-03 12:32:00,79.2,61.1,29.95,WSW,248,0.0,0.0,54,0.00,CLR,FEW,0.00,WeatherDisplay:10.37,2013-09-03 19:32:00,
2013-09-03 12:37:00,79.0,60.9,29.95,WSW,248,0.0,0.0,54,0.00,CLR,FEW,0.00,WeatherDisplay:10.37,2013-09-03 19:37:00,
2013-09-03 12:43:00,79.0,60.9,29.95,WSW,248,0.0,0.0,54,0.00,CLR,FEW,0.00,WeatherDisplay:10.37,2013-09-03 19:43:00,
2013-09-03 12:49:00,78.6,60.6,29.95,West,270,0.0,0.0,54,0.00,CLR,FEW,0.00,WeatherDisplay:10.37,2013-09-03 19:49:00,
2013-09-03 12:54:00,78.6,60.6,29.95,West,270,0.0,0.0,54,0.00,CLR,FEW,0.00,WeatherDisplay:10.37,2013-09-03 19:54:00,
2013-09-03 12:59:00,78.3,60.8,29.96,West,270,0.0,0.0,55,0.00,CLR,FEW,0.00,WeatherDisplay:10.37,2013-09-03 19:59:00,
2013-09-03 13:04:00,78.1,61.1,29.96,NNE,22,3.5,3.5,56,0.00,CLR,FEW,0.00,WeatherDisplay:10.37,2013-09-03 20:04:00,
2013-09-03 13:09:00,77.7,62.2,29.96,North,0,5.8,5.8,59,0.00,CLR,FEW,0.00,WeatherDisplay:10.37,2013-09-03 20:09:00,
2013-09-03 13:14:00,76.6,62.2,29.97,North,0,5.8,5.8,61,0.00,CLR,FEW,0.00,WeatherDisplay:10.37,2013-09-03 20:14:00,
2013-09-03 13:23:00,75.9,62.9,29.98,WNW,292,0.0,0.0,64,0.00,CLR,FEW,0.00,WeatherDisplay:10.37,2013-09-03 20:23:00,
2013-09-03 13:28:00,75.6,63.0,29.98,North,0,2.7,2.7,65,0.00,CLR,FEW,0.00,WeatherDisplay:10.37,2013-09-03 20:28:00,
2013-09-03 13:33:00,75.4,63.2,29.98,NE,45,0.0,0.0,66,0.00,CLR,FEW,0.00,WeatherDisplay:10.37,2013-09-03 20:33:00,
2013-09-03 13:38:00,75.0,62.9,29.98,NNW,338,6.9,6.9,66,0.08,RA,FEW,0.08,WeatherDisplay:10.37,2013-09-03 20:38:00,
2013-09-03 13:43:00,75.0,62.9,29.99,NW,315,0.0,0.0,66,0.08,RA,FEW,0.08,WeatherDisplay:10.37,2013-09-03 20:43:00,
2013-09-03 13:48:00,75.4,63.7,29.99,North,0,0.0,0.0,67,0.08,CLR,FEW,0.08,WeatherDisplay:10.37,2013-09-03 20:48:00,
2013-09-03 13:53:00,75.6,63.8,29.99,North,0,4.6,4.6,67,0.08,CLR,FEW,0.08,WeatherDisplay:10.37,2013-09-03 20:53:00,
2013-09-03 13:58:00,75.6,63.8,29.99,North,0,5.8,5.8,67,0.08,CLR,FEW,0.08,WeatherDisplay:10.37,2013-09-03 20:58:00,
2013-09-03 14:03:00,75.7,63.6,29.99,NNW,338,8.1,8.1,66,0.08,CLR,FEW,0.08,WeatherDisplay:10.37,2013-09-03 21:03:00,
2013-09-03 14:08:00,75.7,63.6,29.98,NNW,338,9.2,9.2,66,0.08,CLR,FEW,0.08,WeatherDisplay:10.37,2013-09-03 21:08:00,
2013-09-03 14:13:00,76.1,63.5,29.98,North,0,3.1,3.1,65,0.08,CLR,FEW,0.08,WeatherDisplay:10.37,2013-09-03 21:13:00,
2013-09-03 14:18:00,76.3,63.2,29.97,NNW,338,6.9,7.0,64,0.08,CLR,FEW,0.08,WeatherDisplay:10.37,2013-09-03 21:18:00,
2013-09-03 14:23:00,76.6,63.5,29.97,NNW,338,5.8,6.0,64,0.08,CLR,FEW,0.08,WeatherDisplay:10.37,2013-09-03 21:23:00,
2013-09-03 14:28:00,76.6,63.1,29.97,West,270,3.8,3.8,63,0.08,CLR,FEW,0.08,WeatherDisplay:10.37,2013-09-03 21:28:00,
2013-09-03 14:33:00,77.2,63.2,29.97,NW,315,0.0,0.0,62,0.08,CLR,FEW,0.08,WeatherDisplay:10.37,2013-09-03 21:33:00,
2013-09-03 14:38:00,78.1,63.5,29.97,NW,315,4.6,0.0,61,0.00,CLR,FEW,0.08,WeatherDisplay:10.37,2013-09-03 21:38:00,
2013-09-03 14:43:00,79.0,63.9,29.97,NW,315,0.0,0.0,60,0.00,CLR,FEW,0.08,WeatherDisplay:10.37,2013-09-03 21:43:00,
2013-09-03 14:48:00,79.3,63.8,29.97,WNW,292,3.5,3.5,59,0.00,CLR,FEW,0.08,WeatherDisplay:10.37,2013-09-03 21:48:00,
2013-09-03 14:53:00,79.7,64.1,29.97,WNW,292,0.0,0.0,59,0.00,CLR,FEW,0.08,WeatherDisplay:10.37,2013-09-03 21:53:00,
2013-09-03 14:58:00,80.2,63.6,29.96,SW,225,5.8,5.8,57,0.00,CLR,FEW,0.08,WeatherDisplay:10.37,2013-09-03 21:58:00,
2013-09-03 15:03:00,80.6,64.0,29.96,West,270,0.0,0.0,57,0.00,CLR,FEW,0.08,WeatherDisplay:10.37,2013-09-03 22:03:00,
2013-09-03 15:08:00,81.0,63.8,29.96,NW,315,8.1,8.1,56,0.00,CLR,FEW,0.08,WeatherDisplay:10.37,2013-09-03 22:08:00,
2013-09-03 15:14:00,81.1,63.4,29.96,West,270,0.0,0.0,55,0.00,CLR,FEW,0.08,WeatherDisplay:10.37,2013-09-03 22:14:00,
2013-09-03 15:19:00,81.1,63.4,29.96,West,270,0.0,0.0,55,0.00,CLR,FEW,0.08,WeatherDisplay:10.37,2013-09-03 22:19:00,
2013-09-03 15:24:00,81.3,63.6,29.95,West,270,0.0,0.0,55,0.00,CLR,FEW,0.08,WeatherDisplay:10.37,2013-09-03 22:24:00,
2013-09-03 15:29:00,81.7,63.4,29.95,North,0,3.5,3.5,54,0.00,CLR,FEW,0.08,WeatherDisplay:10.37,2013-09-03 22:29:00,
2013-09-03 15:34:00,81.7,63.9,29.95,North,0,3.5,3.5,55,0.00,CLR,FEW,0.08,WeatherDisplay:10.37,2013-09-03 22:34:00,
2013-09-03 15:39:00,82.0,63.8,29.94,NNE,22,0.0,0.0,54,0.00,CLR,FEW,0.08,WeatherDisplay:10.37,2013-09-03 22:39:00,
2013-09-03 15:44:00,82.0,63.2,29.94,ENE,68,0.0,0.0,53,0.00,CLR,FEW,0.08,WeatherDisplay:10.37,2013-09-03 22:44:00,
2013-09-03 15:49:00,82.2,63.9,29.94,NE,45,0.0,0.0,54,0.00,CLR,FEW,0.08,WeatherDisplay:10.37,2013-09-03 22:49:00,
2013-09-03 15:54:00,82.4,63.5,29.94,NNW,338,2.5,2.5,53,0.00,CLR,FEW,0.08,WeatherDisplay:10.37,2013-09-03 22:54:00,
2013-09-03 15:59:00,82.6,63.7,29.93,NNW,338,0.0,0.0,53,0.00,CLR,FEW,0.08,WeatherDisplay:10.37,2013-09-03 22:59:00,
2013-09-03 16:04:00,82.6,63.7,29.93,NNE,22,5.8,5.8,53,0.00,CLR,FEW,0.08,WeatherDisplay:10.37,2013-09-03 23:04:00,
2013-09-03 16:09:00,82.9,64.0,29.93,NW,315,0.0,0.0,53,0.00,CLR,FEW,0.08,WeatherDisplay:10.37,2013-09-03 23:09:00,
2013-09-03 16:14:00,83.1,64.2,29.93,NNE,22,0.0,0.0,53,0.00,CLR,FEW,0.08,WeatherDisplay:10.37,2013-09-03 23:14:00,
2013-09-03 16:19:00,83.1,63.7,29.92,NE,45,0.0,0.0,52,0.00,CLR,FEW,0.08,WeatherDisplay:10.37,2013-09-03 23:19:00,
2013-09-03 16:24:00,83.5,64.0,29.92,NE,45,0.0,0.0,52,0.00,CLR,FEW,0.08,WeatherDisplay:10.37,2013-09-03 23:24:00,
2013-09-03 16:29:00,83.5,63.4,29.92,ENE,68,4.6,4.6,51,0.00,CLR,FEW,0.08,WeatherDisplay:10.37,2013-09-03 23:29:00,
2013-09-03 16:34:00,83.3,63.3,29.91,East,90,0.0,0.0,51,0.00,CLR,FEW,0.08,WeatherDisplay:10.37,2013-09-03 23:34:00,
2013-09-03 16:39:00,83.3,63.3,29.92,SE,135,0.0,0.0,51,0.00,CLR,FEW,0.08,WeatherDisplay:10.37,2013-09-03 23:39:00,
2013-09-03 16:44:00,83.3,63.3,29.91,SE,135,0.0,0.0,51,0.00,CLR,FEW,0.08,WeatherDisplay:10.37,2013-09-03 23:44:00,
2013-09-03 16:49:00,83.5,63.4,29.91,SE,135,2.5,2.5,51,0.00,CLR,FEW,0.08,WeatherDisplay:10.37,2013-09-03 23:49:00,
2013-09-03 16:54:00,83.5,63.4,29.90,SE,135,0.0,0.0,51,0.00,CLR,FEW,0.08,WeatherDisplay:10.37,2013-09-03 23:54:00,
2013-09-03 16:59:00,83.7,63.6,29.90,SE,135,0.0,0.0,51,0.00,CLR,FEW,0.08,WeatherDisplay:10.37,2013-09-03 23:59:00,
2013-09-03 17:04:00,83.7,63.6,29.89,SE,135,0.0,0.0,51,0.00,CLR,FEW,0.08,WeatherDisplay:10.37,2013-09-04 00:04:00,
2013-09-03 17:09:00,83.8,63.8,29.89,SE,135,0.0,0.0,51,0.00,CLR,FEW,0.08,WeatherDisplay:10.37,2013-09-04 00:09:00,
2013-09-03 17:14:00,84.2,63.5,29.90,SE,135,0.0,0.0,50,0.00,CLR,FEW,0.08,WeatherDisplay:10.37,2013-09-04 00:14:00,
2013-09-03 17:19:00,84.6,63.3,29.90,SE,135,0.0,0.0,49,0.00,CLR,FEW,0.08,WeatherDisplay:10.37,2013-09-04 00:19:00,
2013-09-03 17:24:00,84.7,63.5,29.90,SE,135,0.0,0.0,49,0.00,CLR,FEW,0.08,WeatherDisplay:10.37,2013-09-04 00:24:00,
2013-09-03 17:29:00,84.9,63.6,29.90,SE,135,0.0,0.0,49,0.00,CLR,FEW,0.08,WeatherDisplay:10.37,2013-09-04 00:29:00,
2013-09-03 17:34:00,85.1,63.2,29.90,SE,135,0.0,0.0,48,0.00,CLR,FEW,0.08,WeatherDisplay:10.37,2013-09-04 00:34:00,
2013-09-03 17:39:00,84.9,62.4,29.90,SE,135,0.0,0.0,47,0.00,CLR,FEW,0.08,WeatherDisplay:10.37,2013-09-04 00:39:00,
2013-09-03 17:44:00,85.1,62.6,29.90,SE,135,0.0,0.0,47,0.00,CLR,FEW,0.08,WeatherDisplay:10.37,2013-09-04 00:44:00,
2013-09-03 17:49:00,85.1,63.2,29.90,ESE,112,0.0,0.0,48,0.00,CLR,FEW,0.08,WeatherDisplay:10.37,2013-09-04 00:49:00,
2013-09-03 17:54:00,84.9,62.4,29.90,East,90,0.0,0.0,47,0.00,CLR,FEW,0.08,WeatherDisplay:10.37,2013-09-04 00:54:00,
2013-09-03 17:59:00,84.9,62.4,29.90,East,90,0.0,0.0,47,0.00,CLR,FEW,0.08,WeatherDisplay:10.37,2013-09-04 00:59:00,
2013-09-03 18:04:00,84.9,63.0,29.90,ENE,68,0.0,0.0,48,0.00,CLR,FEW,0.08,WeatherDisplay:10.37,2013-09-04 01:04:00,
2013-09-03 18:09:00,85.1,63.2,29.90,ENE,68,0.0,0.0,48,0.00,CLR,FEW,0.08,WeatherDisplay:10.37,2013-09-04 01:09:00,
2013-09-03 18:14:00,85.3,62.8,29.90,ENE,68,0.0,0.0,47,0.00,CLR,FEW,0.08,WeatherDisplay:10.37,2013-09-04 01:14:00,
2013-09-03 18:19:00,85.3,62.8,29.90,ENE,68,0.0,0.0,47,0.00,CLR,FEW,0.08,WeatherDisplay:10.37,2013-09-04 01:19:00,
2013-09-03 18:24:00,86.2,63.0,29.90,ENE,68,0.0,0.0,46,0.00,CLR,FEW,0.08,WeatherDisplay:10.37,2013-09-04 01:24:00,
2013-09-03 18:29:00,85.8,62.6,29.89,ENE,68,0.0,0.0,46,0.00,CLR,FEW,0.08,WeatherDisplay:10.37,2013-09-04 01:29:00,
2013-09-03 18:34:00,85.1,62.6,29.90,North,0,6.9,6.9,47,0.00,CLR,FEW,0.08,WeatherDisplay:10.37,2013-09-04 01:34:00,
2013-09-03 18:39:00,84.2,62.4,29.89,North,0,0.0,0.0,48,0.00,CLR,FEW,0.08,WeatherDisplay:10.37,2013-09-04 01:39:00,
2013-09-03 18:44:00,82.9,62.4,29.89,North,0,0.0,0.0,50,0.00,CLR,FEW,0.08,WeatherDisplay:10.37,2013-09-04 01:44:00,
2013-09-03 18:49:00,82.0,62.1,29.89,North,0,0.0,0.0,51,0.00,CLR,FEW,0.08,WeatherDisplay:10.37,2013-09-04 01:49:00,
2013-09-03 18:54:00,81.1,61.8,29.89,North,0,0.0,0.0,52,0.00,CLR,FEW,0.08,WeatherDisplay:10.37,2013-09-04 01:54:00,
2013-09-03 18:59:00,80.4,62.2,29.89,NNW,338,0.0,0.0,54,0.00,CLR,FEW,0.08,WeatherDisplay:10.37,2013-09-04 01:59:00,
2013-09-03 19:04:00,79.7,61.6,29.89,NNW,338,0.0,0.0,54,0.00,CLR,FEW,0.08,WeatherDisplay:10.37,2013-09-04 02:04:00,
2013-09-03 19:09:00,79.2,61.6,29.89,NNW,338,0.0,0.0,55,0.00,CLR,FEW,0.08,WeatherDisplay:10.37,2013-09-04 02:09:00,
2013-09-03 19:14:00,78.4,61.9,29.88,NNW,338,0.0,0.0,57,0.00,CLR,FEW,0.08,WeatherDisplay:10.37,2013-09-04 02:14:00,
2013-09-03 19:19:00,77.9,61.4,29.88,NNW,338,0.0,0.0,57,0.00,CLR,FEW,0.08,WeatherDisplay:10.37,2013-09-04 02:19:00,
2013-09-03 19:24:00,77.5,61.6,29.88,NNW,338,0.0,0.0,58,0.00,CLR,FEW,0.08,WeatherDisplay:10.37,2013-09-04 02:24:00,
2013-09-03 19:29:00,76.8,61.4,29.89,NNW,338,0.0,0.0,59,0.00,CLR,FEW,0.08,WeatherDisplay:10.37,2013-09-04 02:29:00,
2013-09-03 19:34:00,76.5,61.1,29.89,NNW,338,0.0,0.0,59,0.00,CLR,FEW,0.08,WeatherDisplay:10.37,2013-09-04 02:34:00,
2013-09-03 19:39:00,75.9,61.0,29.89,NNE,22,3.6,3.6,60,0.00,CLR,FEW,0.08,WeatherDisplay:10.37,2013-09-04 02:39:00,
2013-09-03 19:44:00,75.0,61.1,29.89,NNE,22,0.0,0.0,62,0.00,CLR,FEW,0.08,WeatherDisplay:10.37,2013-09-04 02:44:00,
2013-09-03 19:49:00,74.8,60.9,29.89,NNE,22,0.0,0.0,62,0.00,CLR,FEW,0.08,WeatherDisplay:10.37,2013-09-04 02:49:00,
2013-09-03 19:54:00,74.5,61.1,29.89,NNE,22,0.0,0.0,63,0.00,CLR,FEW,0.08,WeatherDisplay:10.37,2013-09-04 02:54:00,
2013-09-03 19:59:00,73.9,60.5,29.90,NE,45,0.0,0.0,63,0.00,CLR,FEW,0.08,WeatherDisplay:10.37,2013-09-04 02:59:00,
2013-09-03 20:04:00,73.8,60.8,29.90,NE,45,0.0,0.0,64,0.00,CLR,FEW,0.08,WeatherDisplay:10.37,2013-09-04 03:04:00,
2013-09-03 20:09:00,73.2,60.3,29.90,NE,45,0.0,0.0,64,0.00,CLR,FEW,0.08,WeatherDisplay:10.37,2013-09-04 03:09:00,
2013-09-03 20:14:00,73.0,60.6,29.90,NE,45,0.0,0.0,65,0.00,CLR,FEW,0.08,WeatherDisplay:10.37,2013-09-04 03:14:00,
2013-09-03 20:19:00,72.7,60.7,29.90,NE,45,0.0,0.0,66,0.00,CLR,FEW,0.08,WeatherDisplay:10.37,2013-09-04 03:19:00,
2013-09-03 20:24:00,72.3,60.7,29.90,NE,45,0.0,0.0,67,0.00,CLR,FEW,0.08,WeatherDisplay:10.37,2013-09-04 03:24:00,
2013-09-03 20:29:00,72.1,60.6,29.90,NE,45,0.0,0.0,67,0.00,CLR,FEW,0.08,WeatherDisplay:10.37,2013-09-04 03:29:00,
2013-09-03 20:34:00,72.0,60.4,29.90,NE,45,0.0,0.0,67,0.00,CLR,FEW,0.08,WeatherDisplay:10.37,2013-09-04 03:34:00,
2013-09-03 20:39:00,71.2,60.1,29.90,East,90,0.0,0.0,68,0.00,CLR,FEW,0.08,WeatherDisplay:10.37,2013-09-04 03:39:00,
2013-09-03 20:44:00,71.1,59.5,29.90,East,90,0.0,0.0,67,0.00,CLR,FEW,0.08,WeatherDisplay:10.37,2013-09-04 03:44:00,
2013-09-03 20:49:00,70.9,59.8,29.90,East,90,0.0,0.0,68,0.00,CLR,FEW,0.08,WeatherDisplay:10.37,2013-09-04 03:49:00,
2013-09-03 20:54:00,70.7,60.4,29.91,NNW,338,0.0,0.0,70,0.00,CLR,FEW,0.08,WeatherDisplay:10.37,2013-09-04 03:54:00,
2013-09-03 20:59:00,70.5,60.3,29.90,NNW,338,0.0,0.0,70,0.00,CLR,FEW,0.08,WeatherDisplay:10.37,2013-09-04 03:59:00,
2013-09-03 21:01:00,70.5,60.3,29.91,NNW,338,0.0,0.0,70,0.00,CLR,FEW,0.08,WeatherDisplay:10.37,2013-09-04 04:01:00,
2013-09-03 21:02:00,70.5,60.3,29.91,NNW,338,0.0,0.0,70,0.00,CLR,FEW,0.08,WeatherDisplay:10.37,2013-09-04 04:02:00,
2013-09-03 21:07:00,70.3,60.1,29.91,NNW,338,0.0,0.0,70,0.00,CLR,FEW,0.08,WeatherDisplay:10.37,2013-09-04 04:07:00,
2013-09-03 21:12:00,70.3,60.1,29.91,NNW,338,0.0,0.0,70,0.00,CLR,FEW,0.08,WeatherDisplay:10.37,2013-09-04 04:12:00,
2013-09-03 21:17:00,70.2,59.9,29.91,NNW,338,0.0,0.0,70,0.00,CLR,FEW,0.08,WeatherDisplay:10.37,2013-09-04 04:17:00,
2013-09-03 21:22:00,70.0,59.7,29.91,NNW,338,0.0,0.0,70,0.00,CLR,FEW,0.08,WeatherDisplay:10.37,2013-09-04 04:22:00,
2013-09-03 21:27:00,69.6,59.4,29.92,NNW,338,0.0,0.0,70,0.00,CLR,FEW,0.08,WeatherDisplay:10.37,2013-09-04 04:27:00,
2013-09-03 21:32:00,69.4,59.2,29.92,NNW,338,0.0,0.0,70,0.00,CLR,FEW,0.08,WeatherDisplay:10.37,2013-09-04 04:32:00,
2013-09-03 21:37:00,69.4,59.6,29.91,NNW,338,0.0,0.0,71,0.00,CLR,FEW,0.08,WeatherDisplay:10.37,2013-09-04 04:37:00,
2013-09-03 21:42:00,69.1,60.1,29.91,NNW,338,0.0,0.0,73,0.00,CLR,FEW,0.08,WeatherDisplay:10.37,2013-09-04 04:42:00,
2013-09-03 21:47:00,68.9,59.9,29.91,NNW,338,0.0,0.0,73,0.00,CLR,FEW,0.08,WeatherDisplay:10.37,2013-09-04 04:47:00,
2013-09-03 21:52:00,68.7,60.1,29.92,NNW,338,0.0,0.0,74,0.00,CLR,FEW,0.08,WeatherDisplay:10.37,2013-09-04 04:52:00,
2013-09-03 21:57:00,68.5,59.5,29.92,NNW,338,0.0,0.0,73,0.00,CLR,FEW,0.08,WeatherDisplay:10.37,2013-09-04 04:57:00,
2013-09-03 22:02:00,68.5,59.5,29.92,NNW,338,0.0,0.0,73,0.00,CLR,FEW,0.08,WeatherDisplay:10.37,2013-09-04 05:02:00,
2013-09-03 22:07:00,68.2,59.2,29.92,NNW,338,0.0,0.0,73,0.00,CLR,FEW,0.08,WeatherDisplay:10.37,2013-09-04 05:07:00,
2013-09-03 22:12:00,67.8,58.8,29.92,NNW,338,0.0,0.0,73,0.00,CLR,FEW,0.08,WeatherDisplay:10.37,2013-09-04 05:12:00,
2013-09-03 22:17:00,67.8,58.8,29.92,NNW,338,0.0,0.0,73,0.00,CLR,FEW,0.08,WeatherDisplay:10.37,2013-09-04 05:17:00,
2013-09-03 22:22:00,67.6,58.7,29.92,NNW,338,0.0,0.0,73,0.00,CLR,FEW,0.08,WeatherDisplay:10.37,2013-09-04 05:22:00,
2013-09-03 22:27:00,67.3,58.7,29.92,NNW,338,0.0,0.0,74,0.00,CLR,FEW,0.08,WeatherDisplay:10.37,2013-09-04 05:27:00,
2013-09-03 22:32:00,67.3,58.7,29.92,NNW,338,0.0,0.0,74,0.00,CLR,FEW,0.08,WeatherDisplay:10.37,2013-09-04 05:32:00,
2013-09-03 22:37:00,67.1,58.5,29.92,NNW,338,0.0,0.0,74,0.00,CLR,FEW,0.08,WeatherDisplay:10.37,2013-09-04 05:37:00,
2013-09-03 22:42:00,66.9,58.4,29.92,NNW,338,0.0,0.0,74,0.00,CLR,FEW,0.08,WeatherDisplay:10.37,2013-09-04 05:42:00,
2013-09-03 22:47:00,66.9,58.4,29.92,NNW,338,0.0,0.0,74,0.00,CLR,FEW,0.08,WeatherDisplay:10.37,2013-09-04 05:47:00,
2013-09-03 22:52:00,66.9,58.7,29.92,NNW,338,0.0,0.0,75,0.00,CLR,FEW,0.08,WeatherDisplay:10.37,2013-09-04 05:52:00,
2013-09-03 22:57:00,66.7,58.6,29.93,NNW,338,0.0,0.0,75,0.00,CLR,FEW,0.08,WeatherDisplay:10.37,2013-09-04 05:57:00,
2013-09-03 23:02:00,66.7,58.9,29.92,NNW,338,0.0,0.0,76,0.00,CLR,FEW,0.08,WeatherDisplay:10.37,2013-09-04 06:02:00,
2013-09-03 23:07:00,66.7,58.9,29.92,NNW,338,0.0,0.0,76,0.00,CLR,FEW,0.08,WeatherDisplay:10.37,2013-09-04 06:07:00,
2013-09-03 23:12:00,66.7,58.9,29.92,NNW,338,0.0,0.0,76,0.00,CLR,FEW,0.08,WeatherDisplay:10.37,2013-09-04 06:12:00,
2013-09-03 23:17:00,66.6,59.1,29.92,NNW,338,0.0,0.0,77,0.00,CLR,FEW,0.08,WeatherDisplay:10.37,2013-09-04 06:17:00,
2013-09-03 23:22:00,66.4,58.9,29.93,NNW,338,0.0,0.0,77,0.00,CLR,FEW,0.08,WeatherDisplay:10.37,2013-09-04 06:22:00,
2013-09-03 23:27:00,66.0,58.6,29.92,NNW,338,0.0,0.0,77,0.00,CLR,FEW,0.08,WeatherDisplay:10.37,2013-09-04 06:27:00,
2013-09-03 23:32:00,66.0,59.0,29.93,NNW,338,0.0,0.0,78,0.00,CLR,FEW,0.08,WeatherDisplay:10.37,2013-09-04 06:32:00,
2013-09-03 23:37:00,66.0,59.0,29.93,NNW,338,0.0,0.0,78,0.00,CLR,FEW,0.08,WeatherDisplay:10.37,2013-09-04 06:37:00,
2013-09-03 23:42:00,66.0,59.3,29.93,NNW,338,0.0,0.0,79,0.00,CLR,FEW,0.08,WeatherDisplay:10.37,2013-09-04 06:42:00,
2013-09-03 23:47:00,66.0,59.3,29.93,West,270,0.0,0.0,79,0.00,CLR,FEW,0.08,WeatherDisplay:10.37,2013-09-04 06:47:00,
2013-09-03 23:52:00,66.0,59.0,29.94,West,270,0.0,0.0,78,0.00,CLR,FEW,0.08,WeatherDisplay:10.37,2013-09-04 06:52:00,
2013-09-03 23:57:00,65.8,58.8,29.94,West,270,0.0,0.0,78,0.00,CLR,FEW,0.08,WeatherDisplay:10.37,2013-09-04 06:57:00,